FW5282 Weather Reports


Display with metric or nautical units.
time (UTC)temp
F
wind
direction
speed
MPH
gust
MPH
rain 1hr
in
rain 24hr
in
rain mn
in
humidity
%
barometer
mb
20260508031036 44 355 0.0 1.0 0.00 0.00 0.00 96 1013.3
20260508030603 45 355 0.0 2.0 0.00 0.00 0.00 96 1013.3
20260508030041 45 355 0.0 2.0 0.00 0.00 0.00 96 1013.3
20260508025554 45 360 0.0 1.0 0.00 0.00 0.00 96 1013.2
20260508025059 45 360 0.0 1.0 0.00 0.00 0.00 96 1013.2
20260508024546 45 355 0.0 1.0 0.00 0.00 0.00 96 1013.2
20260508024030 45 360 0.0 1.0 0.00 0.00 0.00 95 1013.2
20260508023537 45 355 0.0 1.0 0.00 0.00 0.00 95 1013.3
20260508023025 45 350 0.0 2.0 0.00 0.00 0.00 95 1013.2
20260508022529 45 360 0.0 2.0 0.00 0.00 0.00 95 1013.2
20260508022028 45 13 0.0 1.0 0.00 0.00 0.00 96 1013.2
20260508021537 45 9 0.0 1.0 0.00 0.00 0.00 96 1013.3
20260508021028 45 350 0.0 1.0 0.00 0.00 0.00 96 1013.3
20260508020535 45 342 0.0 1.0 0.00 0.00 0.00 95 1013.3
20260508020028 45 355 0.0 1.0 0.00 0.00 0.00 95 1013.3
20260508015537 45 355 0.0 1.0 0.00 0.00 0.00 95 1013.3
20260508015036 45 355 0.0 1.0 0.00 0.00 0.00 95 1013.2
20260508014546 45 348 0.0 1.0 0.00 0.00 0.00 95 1013.2
20260508014041 45 355 0.0 1.0 0.00 0.00 0.00 95 1013.2
20260508013527 45 355 0.0 1.0 0.00 0.00 0.00 95 1013.2
20260508013043 45 355 0.0 1.0 0.00 0.00 0.00 95 1013.2
20260508012529 45 351 0.0 1.0 0.00 0.00 0.00 95 1013.3
20260508012027 45 360 0.0 1.0 0.00 0.00 0.00 95 1013.3
20260508011532 45 5 0.0 1.0 0.00 0.00 0.00 94 1013.2
20260508011034 45 5 0.0 1.0 0.00 0.00 0.00 95 1013.2
20260508010536 45 10 0.0 1.0 0.00 0.00 0.00 94 1013.1
20260508010028 45 5 0.0 1.0 0.00 0.00 0.00 94 1013.2
20260508005539 45 17 0.0 1.0 0.00 0.00 0.00 94 1013.1
20260508005104 46 355 0.0 1.0 0.00 0.00 0.00 94 1013.3
20260508004529 46 344 0.0 1.0 0.00 0.00 0.00 94 1013.2
20260508004037 46 355 0.0 1.0 0.00 0.00 0.00 94 1013.2
20260508003540 46 50 0.0 1.0 0.00 0.00 0.00 94 1013.2
20260508003040 46 50 0.0 1.0 0.00 0.00 0.00 94 1013.2
20260508002531 46 355 0.0 1.0 0.00 0.00 0.00 93 1013.2
20260508002054 46 344 0.0 0.0 0.00 0.00 0.00 93 1013.3
20260508001604 46 344 0.0 0.0 0.00 0.00 0.00 93 1013.5
20260508001029 46 344 0.0 0.0 0.00 0.00 0.00 92 1013.5
20260508000530 46 344 0.0 0.0 0.00 0.00 0.00 92 1013.5
20260508000046 46 344 0.0 0.0 0.00 0.00 0.00 92 1013.6
20260507235541 46 344 0.0 0.0 0.00 0.00 0.00 91 1013.7
20260507235045 47 344 0.0 0.0 0.00 0.00 0.00 91 1013.6
20260507234528 47 344 0.0 0.0 0.00 0.00 0.00 91 1013.7
20260507234027 47 344 0.0 0.0 0.00 0.00 0.00 91 1013.8
20260507233536 47 344 0.0 0.0 0.00 0.00 0.00 91 1013.8
20260507233036 48 344 0.0 1.0 0.00 0.00 0.00 91 1013.8
20260507232533 48 344 0.0 1.0 0.00 0.00 0.00 91 1013.9
20260507232033 48 348 0.0 1.0 0.00 0.00 0.00 91 1013.8
20260507231528 49 360 0.0 1.0 0.00 0.00 0.00 91 1013.8
20260507231058 49 219 0.0 0.0 0.00 0.00 0.00 91 1013.8
20260507230524 49 219 0.0 0.0 0.00 0.00 0.00 92 1013.7
20260507230040 49 219 0.0 0.0 0.00 0.00 0.00 91 1013.7
20260507225536 49 219 0.0 1.0 0.00 0.00 0.00 91 1013.6
20260507225034 49 219 0.0 1.0 0.00 0.00 0.00 91 1013.6
20260507224545 49 0.0 0.0 0.00 0.00 0.00 90 1013.6
20260507224031 49 0.0 0.0 0.00 0.00 0.00 90 1013.6
20260507223542 49 0.0 0.0 0.00 0.00 0.00 90 1013.7
20260507223100 49 152 0.0 0.0 0.00 0.00 0.00 90 1013.8
20260507222043 50 152 0.0 0.0 0.00 0.00 0.00 89 1013.8
20260507221544 50 152 0.0 0.0 0.00 0.00 0.00 89 1013.7
20260507221045 50 152 0.0 0.0 0.00 0.00 0.00 89 1013.7
20260507220529 50 152 0.0 0.0 0.00 0.00 0.00 89 1013.7
20260507220037 50 152 0.0 1.0 0.00 0.00 0.00 89 1013.7
20260507215545 51 140 0.0 2.0 0.00 0.00 0.00 88 1013.6
20260507215027 51 109 0.0 2.0 0.00 0.00 0.00 88 1013.6
20260507214530 51 83 0.0 2.0 0.00 0.00 0.00 88 1013.5
20260507214028 51 82 1.0 2.0 0.00 0.00 0.00 88 1013.5
20260507213528 51 84 1.0 2.0 0.00 0.00 0.00 88 1013.5
20260507213032 51 80 0.0 1.0 0.00 0.00 0.00 87 1013.5
20260507212537 51 76 0.0 0.0 0.00 0.00 0.00 87 1013.5
20260507212103 51 72 0.0 1.0 0.00 0.00 0.00 87 1013.6
20260507211546 52 57 0.0 1.0 0.00 0.00 0.00 87 1013.6
20260507211036 52 60 0.0 1.0 0.00 0.00 0.00 87 1013.7
20260507210536 52 84 0.0 1.0 0.00 0.00 0.00 86 1013.7
20260507210028 52 76 0.0 2.0 0.00 0.00 0.00 86 1013.7
20260507205536 52 81 0.0 2.0 0.00 0.00 0.00 84 1013.7
20260507205034 52 82 0.0 1.0 0.00 0.00 0.00 84 1013.7
20260507204541 53 68 0.0 1.0 0.00 0.00 0.00 85 1013.6
20260507204038 53 59 0.0 1.0 0.00 0.00 0.00 85 1013.6
20260507203544 53 44 0.0 1.0 0.00 0.00 0.00 84 1013.6
20260507203042 53 94 0.0 1.0 0.00 0.00 0.00 83 1013.5
20260507202528 53 91 0.0 1.0 0.00 0.00 0.00 83 1013.6
20260507202024 53 91 0.0 2.0 0.00 0.00 0.00 82 1013.5
20260507201540 54 78 0.0 2.0 0.00 0.00 0.00 81 1013.4
20260507201033 54 73 0.0 2.0 0.00 0.00 0.00 81 1013.3
20260507200542 54 71 1.0 2.0 0.00 0.00 0.00 81 1013.3
20260507200035 55 73 0.0 2.0 0.00 0.00 0.00 81 1013.3
20260507195546 55 64 0.0 3.0 0.00 0.00 0.00 81 1013.3
20260507195041 55 50 1.0 3.0 0.00 0.00 0.00 81 1013.2
20260507194533 55 52 1.0 2.0 0.00 0.00 0.00 81 1013.0
20260507194034 55 59 1.0 2.0 0.00 0.00 0.00 80 1013.0
20260507193541 56 47 0.0 2.0 0.00 0.00 0.00 80 1012.9
20260507193041 56 54 0.0 2.0 0.00 0.00 0.00 79 1012.9
20260507192529 56 57 0.0 2.0 0.00 0.00 0.00 78 1012.9
20260507192041 56 55 0.0 2.0 0.00 0.00 0.00 77 1012.8
20260507191551 57 62 0.0 4.0 0.00 0.00 0.00 76 1012.8
20260507191029 57 50 1.0 4.0 0.00 0.00 0.00 76 1012.8
20260507190530 58 40 1.0 4.0 0.00 0.00 0.00 75 1012.7
20260507190043 58 55 1.0 3.0 0.00 0.00 0.00 75 1012.7
20260507185611 58 49 1.0 3.0 0.00 0.00 0.00 73 1012.7
20260507185042 59 61 1.0 4.0 0.00 0.00 0.00 71 1012.6
20260507184528 59 59 1.0 2.0 0.00 0.00 0.00 70 1012.6
20260507184033 59 48 1.0 3.0 0.00 0.00 0.00 69 1012.6
20260507183602 60 75 1.0 4.0 0.00 0.00 0.00 69 1012.5
20260507183043 60 85 1.0 4.0 0.00 0.00 0.00 67 1012.4
20260507182535 60 73 1.0 4.0 0.00 0.00 0.00 67 1012.4
20260507182039 60 55 1.0 3.0 0.00 0.00 0.00 68 1012.4
20260507181529 60 73 1.0 6.0 0.00 0.00 0.00 67 1012.4
20260507181028 61 62 1.0 6.0 0.00 0.00 0.00 67 1012.4
20260507180042 61 43 1.0 6.0 0.00 0.00 0.00 66 1012.3
20260507175553 61 69 3.0 6.0 0.00 0.00 0.00 64 1012.3
20260507175032 62 47 3.0 6.0 0.00 0.00 0.00 64 1012.3
20260507174537 62 63 3.0 6.0 0.00 0.00 0.00 64 1012.4
20260507174052 62 66 2.0 4.0 0.00 0.00 0.00 62 1012.4
20260507173534 62 46 1.0 4.0 0.00 0.00 0.00 62 1012.3
20260507173058 62 41 3.0 5.0 0.00 0.00 0.00 60 1012.3
20260507172538 62 32 2.0 7.0 0.00 0.00 0.00 60 1012.3
20260507172112 62 51 3.0 7.0 0.00 0.00 0.00 60 1012.3
20260507171614 63 75 1.0 6.0 0.00 0.00 0.00 60 1012.3
20260507171116 63 59 3.0 9.0 0.00 0.00 0.00 60 1012.3
20260507170535 63 83 2.0 9.0 0.00 0.00 0.00 60 1012.4
20260507170031 64 51 1.0 5.0 0.00 0.00 0.00 60 1012.3
20260507165550 64 32 2.0 6.0 0.00 0.00 0.00 59 1012.3
20260507165032 64 61 2.0 5.0 0.00 0.00 0.00 61 1012.4
20260507164538 64 39 3.0 6.0 0.00 0.00 0.00 59 1012.4
20260507164102 65 18 2.0 5.0 0.00 0.00 0.00 58 1012.4
20260507163533 65 24 1.0 6.0 0.00 0.00 0.00 57 1012.5
20260507163037 65 58 1.0 6.0 0.00 0.00 0.00 58 1012.5
20260507162525 65 47 1.0 6.0 0.00 0.00 0.00 59 1012.5
20260507162054 65 38 3.0 6.0 0.00 0.00 0.00 59 1012.5
20260507161529 65 41 1.0 6.0 0.00 0.00 0.00 58 1012.5
20260507161043 65 30 2.0 6.0 0.00 0.00 0.00 58 1012.5
20260507160545 65 15 3.0 8.0 0.00 0.00 0.00 57 1012.5
20260507160036 64 51 3.0 8.0 0.00 0.00 0.00 59 1012.5
20260507155539 64 5 1.0 6.0 0.00 0.00 0.00 61 1012.5
20260507155037 64 56 3.0 6.0 0.00 0.00 0.00 61 1012.6
20260507154539 63 36 3.0 6.0 0.00 0.00 0.00 64 1012.6
20260507154041 63 30 2.0 6.0 0.00 0.00 0.00 63 1012.6
20260507153546 64 49 1.0 6.0 0.00 0.00 0.00 62 1012.6
20260507153044 64 61 3.0 6.0 0.00 0.00 0.00 63 1012.6
20260507152558 64 10 2.0 5.0 0.00 0.00 0.00 60 1012.7
20260507152041 65 34 3.0 7.0 0.00 0.00 0.00 60 1012.7
20260507151541 65 23 4.0 9.0 0.00 0.00 0.00 59 1012.8
20260507151043 66 60 4.0 9.0 0.00 0.00 0.00 60 1012.8
20260507150538 66 15 4.0 8.0 0.00 0.00 0.00 60 1012.8
20260507150028 67 348 1.0 5.0 0.00 0.00 0.00 55 1012.8
20260507145540 66 5 1.0 5.0 0.00 0.00 0.00 57 1012.9
20260507145035 66 5 1.0 5.0 0.00 0.00 0.00 57 1012.9
20260507144540 65 61 1.0 6.0 0.00 0.00 0.00 58 1013.0
20260507144036 65 9 1.0 5.0 0.00 0.00 0.00 59 1013.1
20260507143546 64 32 2.0 6.0 0.00 0.00 0.00 60 1013.0
20260507143044 64 40 2.0 9.0 0.00 0.00 0.00 61 1013.1
20260507142535 64 349 3.0 9.0 0.00 0.00 0.00 59 1013.2
20260507142040 65 19 3.0 7.0 0.00 0.00 0.00 62 1013.2
20260507141545 65 39 1.0 4.0 0.00 0.00 0.00 60 1013.2
20260507141035 65 71 0.0 4.0 0.00 0.00 0.00 58 1013.3
20260507140541 66 42 1.0 4.0 0.00 0.00 0.00 56 1013.3
20260507140034 66 49 0.0 4.0 0.00 0.00 0.00 60 1013.3
20260507135534 65 148 1.0 4.0 0.00 0.00 0.00 60 1013.3
20260507135036 65 39 1.0 5.0 0.00 0.00 0.00 62 1013.4
20260507134546 65 42 2.0 6.0 0.00 0.00 0.00 62 1013.5
20260507134036 64 43 2.0 6.0 0.00 0.00 0.00 62 1013.4
20260507133541 64 9 1.0 4.0 0.00 0.00 0.00 61 1013.5
20260507133027 63 22 1.0 5.0 0.00 0.00 0.00 59 1013.6
20260507132534 64 19 1.0 5.0 0.00 0.00 0.00 60 1013.6
20260507132030 64 41 2.0 5.0 0.00 0.00 0.00 59 1013.6
20260507131555 65 26 3.0 5.0 0.00 0.00 0.00 60 1013.7
20260507131038 64 113 3.0 5.0 0.00 0.00 0.00 64 1013.7
20260507130556 64 14 2.0 7.0 0.00 0.00 0.00 63 1013.7
20260507130033 64 40 3.0 11.0 0.00 0.00 0.00 65 1013.7
20260507125544 64 49 3.0 11.0 0.00 0.00 0.00 67 1013.7
20260507125041 64 33 3.0 6.0 0.00 0.00 0.00 64 1013.6
20260507124530 63 46 1.0 3.0 0.00 0.00 0.00 58 1013.6
20260507124026 63 51 2.0 4.0 0.00 0.00 0.00 62 1013.7
20260507123543 62 51 1.0 4.0 0.00 0.00 0.00 63 1013.7
20260507123042 62 47 1.0 4.0 0.00 0.00 0.00 61 1013.7
20260507122533 62 16 1.0 4.0 0.00 0.00 0.00 63 1013.7
20260507122036 62 10 1.0 5.0 0.00 0.00 0.00 64 1013.8
20260507121546 61 14 2.0 5.0 0.00 0.00 0.00 64 1013.8
20260507121058 62 45 2.0 8.0 0.00 0.00 0.00 65 1013.8
20260507120606 62 17 3.0 5.0 0.00 0.00 0.00 67 1013.8
20260507120029 63 42 1.0 5.0 0.00 0.00 0.00 65 1013.8
20260507115557 63 53 3.0 6.0 0.00 0.00 0.00 65 1013.7
20260507115051 63 34 1.0 4.0 0.00 0.00 0.00 63 1013.7
20260507114530 63 335 1.0 5.0 0.00 0.00 0.00 62 1013.8
20260507114038 63 12 1.0 5.0 0.00 0.00 0.00 65 1013.8
20260507113538 62 27 2.0 5.0 0.00 0.00 0.00 68 1013.8
20260507113050 62 9 2.0 5.0 0.00 0.00 0.00 68 1013.8
20260507112557 63 42 3.0 5.0 0.00 0.00 0.00 67 1013.8
20260507112037 63 42 1.0 6.0 0.00 0.00 0.00 67 1013.9
20260507111539 62 117 1.0 5.0 0.00 0.00 0.00 64 1013.9
20260507111046 63 47 1.0 5.0 0.00 0.00 0.00 65 1014.0
20260507110553 62 36 1.0 4.0 0.00 0.00 0.00 70 1014.0
20260507110030 61 83 2.0 4.0 0.00 0.00 0.00 70 1014.1
20260507105600 61 76 2.0 5.0 0.00 0.00 0.00 72 1014.0
20260507105046 61 9 1.0 5.0 0.00 0.00 0.00 71 1014.0
20260507104536 61 51 3.0 7.0 0.00 0.00 0.00 71 1014.1
20260507104041 61 26 3.0 5.0 0.00 0.00 0.00 72 1014.1
20260507103527 61 360 1.0 5.0 0.00 0.00 0.00 70 1014.1
20260507103043 61 21 1.0 4.0 0.00 0.00 0.00 69 1014.1
20260507102529 61 27 1.0 4.0 0.00 0.00 0.00 72 1014.2
20260507102057 60 68 2.0 4.0 0.00 0.00 0.00 72 1014.2
20260507101543 59 329 1.0 4.0 0.00 0.00 0.00 71 1014.2
20260507101038 59 25 1.0 4.0 0.00 0.00 0.00 73 1014.2
20260507100540 59 82 1.0 3.0 0.00 0.00 0.00 75 1014.2
20260507095527 58 28 0.0 4.0 0.00 0.00 0.00 73 1014.1
20260507095042 59 355 2.0 4.0 0.00 0.00 0.00 72 1014.1
20260507094526 60 9 1.0 4.0 0.00 0.00 0.00 72 1014.1
20260507094043 61 350 0.0 4.0 0.00 0.00 0.00 72 1014.1
20260507093530 62 360 1.0 4.0 0.00 0.00 0.00 73 1014.2
20260507093032 61 163 1.0 4.0 0.00 0.00 0.00 76 1014.2
20260507092539 60 160 1.0 4.0 0.00 0.00 0.00 75 1014.2
20260507092103 59 166 1.0 3.0 0.00 0.00 0.00 76 1014.1
20260507091534 58 41 0.0 2.0 0.00 0.00 0.00 75 1014.1
20260507091035 57 61 1.0 2.0 0.00 0.00 0.00 78 1014.1
20260507090536 56 35 0.0 3.0 0.00 0.00 0.00 78 1014.1
20260507090030 57 44 0.0 3.0 0.00 0.04 0.00 78 1014.0
20260507085528 56 140 0.0 1.0 0.00 0.04 0.00 79 1014.0
20260507085045 56 74 0.0 2.0 0.00 0.04 0.00 80 1014.0
20260507084543 56 61 1.0 2.0 0.00 0.04 0.00 81 1013.9
20260507084045 55 53 1.0 2.0 0.00 0.04 0.00 81 1013.9
20260507083529 55 28 0.0 3.0 0.00 0.04 0.00 82 1013.9
20260507083040 55 50 1.0 4.0 0.00 0.04 0.00 82 1013.9
20260507082542 55 66 1.0 4.0 0.00 0.04 0.00 82 1013.9
20260507082041 56 57 1.0 3.0 0.00 0.04 0.00 83 1013.8
20260507081538 56 71 0.0 3.0 0.00 0.04 0.00 83 1013.8
20260507081033 56 63 1.0 3.0 0.00 0.04 0.00 85 1013.8
20260507080535 55 54 0.0 3.0 0.00 0.04 0.00 85 1013.9
20260507080040 55 44 1.0 3.0 0.00 0.04 0.00 84 1013.8
20260507075554 55 87 0.0 2.0 0.00 0.04 0.00 86 1013.9
20260507075028 54 103 0.0 2.0 0.00 0.04 0.00 88 1013.9
20260507074535 53 67 0.0 1.0 0.00 0.04 0.00 86 1013.9
20260507074034 54 49 0.0 1.0 0.00 0.04 0.00 85 1013.8
20260507073539 53 78 0.0 1.0 0.00 0.04 0.00 87 1013.8
20260507073034 53 29 0.0 1.0 0.00 0.04 0.00 87 1013.8
20260507072539 53 17 0.0 1.0 0.00 0.04 0.00 89 1013.7
20260507072036 52 52 0.0 1.0 0.00 0.04 0.00 90 1013.7
20260507071531 52 49 0.0 1.0 0.00 0.04 0.00 89 1013.7
20260507071027 52 48 0.0 1.0 0.00 0.04 0.00 89 1013.7
20260507070535 51 57 0.0 1.0 0.00 0.04 0.00 90 1013.8
20260507070043 50 9 0.0 1.0 0.00 0.12 0.00 92 1013.8
20260507065546 50 32 0.0 1.0 0.00 0.12 0.00 90 1013.8
20260507065039 50 30 0.0 1.0 0.00 0.12 0.00 90 1013.7
20260507064607 50 28 0.0 1.0 0.00 0.12 0.00 91 1013.5
20260507064027 50 26 0.0 1.0 0.00 0.12 0.00 92 1013.6
20260507063535 49 5 0.0 1.0 0.00 0.12 0.00 93 1013.6
20260507063037 49 35 0.0 1.0 0.00 0.12 0.00 93 1013.6
20260507062542 48 32 0.0 1.0 0.00 0.12 0.00 94 1013.5
20260507062044 48 13 0.0 1.0 0.00 0.12 0.00 94 1013.5
20260507061529 48 17 0.0 1.0 0.00 0.12 0.00 95 1013.4
20260507061035 48 5 0.0 1.0 0.00 0.12 0.00 97 1013.4
20260507060542 47 306 0.0 1.0 0.00 0.12 0.00 97 1013.4
20260507060031 47 305 0.0 1.0 0.00 0.16 0.00 97 1013.4
20260507055532 46 305 0.0 1.0 0.00 0.16 0.00 97 1013.4
20260507055039 45 305 0.0 1.0 0.00 0.16 0.00 97 1013.4
20260507054528 45 309 0.0 1.0 0.00 0.16 0.00 97 1013.3
20260507054043 44 309 0.0 1.0 0.00 0.16 0.00 97 1013.2
20260507053530 44 312 0.0 1.0 0.00 0.16 0.00 97 1013.1
20260507053044 43 311 0.0 1.0 0.00 0.16 0.00 96 1013.1
20260507052536 43 307 0.0 0.0 0.00 0.16 0.00 97 1013.1
20260507052028 43 307 0.0 0.0 0.00 0.16 0.00 96 1013.0
20260507051558 42 307 0.0 0.0 0.00 0.16 0.00 96 1013.0
20260507051032 42 307 0.0 1.0 0.00 0.16 0.00 96 1013.0
20260507050541 42 307 0.0 2.0 0.00 0.16 0.00 96 1013.0
20260507050028 42 305 1.0 2.0 0.00 0.16 0.00 96 1013.0
20260507045535 42 302 0.0 0.0 0.00 0.16 0.00 96 1013.0
20260507045028 41 302 0.0 1.0 0.00 0.16 0.00 96 1012.9
20260507044533 41 302 0.0 1.0 0.00 0.16 0.00 96 1012.8
20260507044058 41 302 0.0 1.0 0.00 0.16 0.00 96 1012.8
20260507043527 41 302 0.0 1.0 0.00 0.16 0.00 96 1012.8
20260507043043 41 303 0.0 1.0 0.00 0.16 0.00 96 1012.7
20260507042531 41 303 0.0 1.0 0.00 0.16 0.00 96 1012.7
20260507042057 42 304 0.0 1.0 0.00 0.16 0.00 96 1012.7
20260507041545 42 304 0.0 1.0 0.00 0.16 0.00 96 1012.6
20260507041027 42 306 0.0 2.0 0.00 0.16 0.00 96 1012.6
20260507040534 42 306 0.0 2.0 0.00 0.16 0.00 96 1012.7
20260507040026 42 313 0.0 1.0 0.00 0.20 0.00 96 1012.6
20260507035550 42 313 0.0 2.0 0.00 0.20 0.00 96 1012.7
20260507035036 42 313 0.0 1.0 0.00 0.20 0.00 96 1012.6
20260507034542 42 313 0.0 2.0 0.00 0.20 0.00 96 1012.6
20260507034032 42 313 0.0 2.0 0.00 0.20 0.00 96 1012.6
20260507033540 42 314 1.0 2.0 0.00 0.20 0.00 96 1012.6
20260507033047 42 314 0.0 2.0 0.00 0.20 0.00 96 1012.6
20260507032529 42 314 1.0 2.0 0.00 0.20 0.00 96 1012.5
20260507032032 42 315 0.0 2.0 0.00 0.20 0.00 96 1012.5
20260507031534 42 313 1.0 2.0 0.00 0.20 0.00 95 1012.6